Lexington Weather

Lexington, Massachusetts, USA

25°F
1/23/2020 8:42am 
  • Lexington Conditions: Partly cloudy
  • Temperature: 25.0°F / -3.9°CWarmer 2.7°F than last hour.
  • Dew Point: 18.5°FIncreased 0.9°Fsince last hour.
  • Relative Humidity: 76%Decreased 6.0% since last hour.
  • Wind: Calm, 10-min avg: Calm, gust: 5 mph
  • Barometer: 30.33 in Steady
  • Visibility: 10 miles
  • Snow Today: 0.0 in
  •   

Regional Weather Roundup
for Boston / Norton, MA

        
000
ASUS41 KBOX 212110
RWRBOX

REGIONAL WEATHER ROUNDUP
NATIONAL WEATHER SERVICE BOSTON/NORTON MA
400 PM EST TUE JAN 21 2020

NOTE:  "FAIR" INDICATES FEW OR NO CLOUDS BELOW 12,000 FEET WITH NO 
SIGNIFICANT WEATHER AND/OR OBSTRUCTIONS TO VISIBILITY.

MAZALL-212200-
EASTERN MASSACHUSETTS
  
CITY           SKY/WX    TMP DP  RH WIND       PRES   REMARKS
BOSTON         FAIR      27   1  32 N5        30.39S WCI  22          
BEVERLY        FAIR      24   3  40 NW3       30.38S                  
LAWRENCE       FAIR      24   0  35 CALM      30.39F                  
BEDFORD        MOCLDY    25   1  35 E3        30.37S                  
BLUE HILL        N/A     21   1  41 NW5       30.33S WCI  15          
NORWOOD        FAIR      28   0  29 CALM      30.39R                  
MARSHFIELD     FAIR      25   7  46 NW7       30.39R WCI  17          
PLYMOUTH       FAIR      25   3  38 NW6       30.38R WCI  18          
TAUNTON        FAIR      25   1  35 NW6       30.39R WCI  18          
NEW BEDFORD    FAIR      27   1  32 VRB5      30.38R WCI  22          
$$

MAZALL-212200-
CAPE COD AND THE ISLANDS
  
CITY           SKY/WX    TMP DP  RH WIND       PRES   REMARKS
FALMOUTH       CLEAR     27   9  46 NE7       30.36S WCI  19          
HYANNIS        FAIR      27  18  69 N8        30.35S WCI  19          
CHATHAM        FAIR      28  21  75 N8        30.37R WCI  20          
PROVINCETOWN   FAIR      27  21  78 NW9       30.39R WCI  18          
NANTUCKET      MOCLDY    30  21  69 N10       30.36R WCI  21          
MARTHAS VNYRD  FAIR      29   8  41 NW6       30.36S WCI  23          
$$
 
MAZALL-212200-
CENTRAL AND WESTERN MASSACHUSETTS
  
CITY           SKY/WX    TMP DP  RH WIND       PRES   REMARKS
WORCESTER      FAIR      23   1  38 NW13      30.31S WCI  11          
FITCHBURG      FAIR      24   1  36 NW9       30.37R WCI  14          
ORANGE         FAIR      24   0  35 NW6       30.37S WCI  17          
SPRINGFIELD    PTCLDY    27   1  33 N7        30.37S WCI  19          
WESTFIELD      FAIR      27   3  35 NW12      30.38S WCI  17          
NORTH ADAMS    FAIR      19   0  43 SW5       30.39F WCI  12          
PITTSFIELD     FAIR      19  -1  41 NW10      30.33S WCI   7          
$$
 
RIZALL-212200-
RHODE ISLAND
  
CITY           SKY/WX    TMP DP  RH WIND       PRES   REMARKS
PROVIDENCE     MOCLDY    27   3  35 N7        30.39R WCI  19          
NEWPORT        FAIR      27   3  35 N6        30.37R WCI  20          
BLOCK ISLAND   FAIR      27   7  42 CALM      30.38S                  
SMITHFIELD     FAIR      24   3  40 CALM      30.36R                  
WESTERLY       FAIR      31   2  29 N5        30.39R WCI  26          
$$
 
CTZALL-212200-
CONNECTICUT
  
CITY           SKY/WX    TMP DP  RH WIND       PRES   REMARKS
BRADLEY INTL   FAIR      29   4  34 NW12      30.38F WCI  19          
HARTFORD       FAIR      29   4  34 NE3       30.40R                  
BRIDGEPORT     FAIR      31   2  29 N10       30.41R WCI  22          
DANBURY        FAIR      27   4  37 NW7       30.40R WCI  19          
GROTON         MOCLDY    28   4  35 NW10      30.39R WCI  19          
NEW HAVEN      FAIR      32   3  29 NW7       30.39S WCI  26          
CHESTER        NOT AVBL                                               
MERIDEN        FAIR      30   3  31 W8G20     30.39R WCI  22          
WILLIMANTIC    FAIR      28   2  32 N9        30.39R WCI  19          
OXFORD         FAIR      26   3  37 NW9       30.37R WCI  17          
$$

MEZ002-015-021-024-NHZ003-005-008-011-012-014-VTZ005-008-212200-
NORTHERN NEW ENGLAND
  
CITY           SKY/WX    TMP DP  RH WIND       PRES   REMARKS
PORTLAND ME    MOCLDY    22   6  50 S7        30.38S WCI  13          
BANGOR ME      FAIR      17   0  47 S3        30.36S                  
CONCORD NH     FAIR      22  -1  36 NW3       30.37S                  
MANCHESTER NH  FAIR      24   0  35 N6        30.36S WCI  17          
NASHUA NH      FAIR      25   3  38 NW6       30.38S WCI  18          
PORTSMOUTH NH  PTCLDY    24   1  35 W3        30.36F                  
JAFFREY NH     FAIR      22  -2  35 W5        30.32S WCI  16          
KEENE NH       FAIR      25   4  40 N3        30.38S                  
BURLINGTON VT  MOCLDY    17   2  51 S6        30.39F WCI   9          
MT. WASHINGTON PTCLDY     3 -11  51 NW37        N/A  WCI -24          
$$

NYZ052-076-212200-
EASTERN NEW YORK
  
CITY           SKY/WX    TMP DP  RH WIND       PRES   REMARKS
ALBANY         FAIR      26   3  37 NW8       30.43S WCI  18          
NEW YORK CITY  MOCLDY    32   6  33 NW9       30.41S WCI  24          
$$
 
ANZALL-212200-
MARINE OBSERVATIONS
  
STATION/POSITION TIME  TEMP    WIND        PRES    VSBY  WAVE
                       AIR SEA DIR/SP/G                  HT/PER
                 (UTC) (F)     (DEG/KT/KT) (MB)    (MI)  (FT/S)
BOSTON BUOY      2050   25 42  320/  6/  8 1028.9R         2/12
BUZZARDS BAY     2000   28     340/  9/ 10 1028.9R
NANTUCKET SOUND  2040                        N/A           1/ 3
MASS BAY-STELLWA 2004   24 41  340/  6/  8 1027.2F  1 7/8  2/11
ISLE OF SHOALS   2000   23      20/  2/  3 1028.7R
S OF BLOCK IS    2100      45                N/A           2/ 4
$$

......................KEY.........................
  SKY/WX - SKY CONDITION/PRESENT WEATHER
  TMP    - TEMPERATURE IN FAHRENHEIT
  DWPT   - DEWPOINT IN FAHRENHEIT
  RH     - RELATIVE HUMIDITY IN PERCENT
  WIND   - DIRECTION AND SPEED IN MPH
  PRES   - MEAN SEA LEVEL PRESSURE IN INCHES OF HG
  WCI    - WIND CHILL INDEX
  VSB    - VISIBILITY IN MILES
  HX     - HEAT INDEX
  TC     - TEMPERATURE IN CELSIUS
  VRB    - VARIABLE WIND DIRECTION
  N/A    - NOT AVAILABLE
  
      

Other recent Regional Weather Roundups

Thu Jan 23, 8:10am

Thu Jan 23, 8:00am

Thu Jan 23, 7:10am

Thu Jan 23, 7:01am

Thu Jan 23, 6:10am

Thu Jan 23, 6:00am

Thu Jan 23, 5:10am

Thu Jan 23, 5:00am

Thu Jan 23, 4:10am

Thu Jan 23, 4:01am

Thu Jan 23, 3:10am

Thu Jan 23, 3:00am

Thu Jan 23, 2:10am

Thu Jan 23, 2:00am

Thu Jan 23, 1:10am

Thu Jan 23, 1:00am

Thu Jan 23, 12:10am

Thu Jan 23, 12:00am

Wed Jan 22, 11:10pm

Wed Jan 22, 11:01pm

Wed Jan 22, 10:10pm

Wed Jan 22, 10:00pm

Wed Jan 22, 9:10pm

Wed Jan 22, 9:00pm

Wed Jan 22, 8:10pm

Wed Jan 22, 8:01pm

Wed Jan 22, 7:10pm

Wed Jan 22, 7:00pm

Wed Jan 22, 6:10pm

Wed Jan 22, 6:01pm

Wed Jan 22, 5:10pm

Wed Jan 22, 5:00pm

Wed Jan 22, 4:10pm

Wed Jan 22, 4:00pm

Wed Jan 22, 3:10pm

Wed Jan 22, 3:00pm

Wed Jan 22, 2:10pm

Wed Jan 22, 2:00pm

Wed Jan 22, 1:10pm

Wed Jan 22, 1:00pm

Wed Jan 22, 12:10pm

Wed Jan 22, 12:00pm

Wed Jan 22, 11:10am

Wed Jan 22, 11:00am

Wed Jan 22, 10:10am

Wed Jan 22, 10:01am

Wed Jan 22, 9:10am

Wed Jan 22, 9:00am

Wed Jan 22, 8:10am

Wed Jan 22, 8:00am

Wed Jan 22, 7:10am

Wed Jan 22, 7:00am

Wed Jan 22, 6:10am

Wed Jan 22, 6:00am

Wed Jan 22, 5:10am

Wed Jan 22, 5:00am

Wed Jan 22, 4:10am

Wed Jan 22, 4:00am

Wed Jan 22, 3:10am

Wed Jan 22, 3:01am

Wed Jan 22, 2:10am

Wed Jan 22, 2:00am

Wed Jan 22, 1:10am

Wed Jan 22, 1:00am

Wed Jan 22, 12:10am

Wed Jan 22, 12:00am

Tue Jan 21, 11:10pm

Tue Jan 21, 11:00pm

Tue Jan 21, 10:10pm

Tue Jan 21, 10:00pm

Tue Jan 21, 9:10pm

Tue Jan 21, 9:01pm

Tue Jan 21, 8:10pm

Tue Jan 21, 8:00pm

Tue Jan 21, 7:10pm

Tue Jan 21, 7:00pm

Tue Jan 21, 6:10pm

Tue Jan 21, 6:01pm

Tue Jan 21, 5:10pm

Tue Jan 21, 5:00pm

Tue Jan 21, 4:00pm

Tue Jan 21, 3:10pm

Tue Jan 21, 3:01pm

Tue Jan 21, 2:10pm

Tue Jan 21, 2:00pm

Tue Jan 21, 1:10pm

Tue Jan 21, 1:00pm

Tue Jan 21, 12:10pm

Tue Jan 21, 12:00pm

Tue Jan 21, 11:10am

Tue Jan 21, 11:00am

Tue Jan 21, 10:10am

Tue Jan 21, 10:00am

Tue Jan 21, 9:10am

Tue Jan 21, 9:00am

Tue Jan 21, 8:10am

Tue Jan 21, 8:00am

Tue Jan 21, 7:10am

Tue Jan 21, 7:00am

Tue Jan 21, 6:10am

Tue Jan 21, 6:00am

Tue Jan 21, 5:10am

Tue Jan 21, 5:00am

Tue Jan 21, 4:10am

Tue Jan 21, 4:00am

Tue Jan 21, 3:10am

Tue Jan 21, 3:00am

Tue Jan 21, 2:10am

Tue Jan 21, 2:01am

Tue Jan 21, 1:10am

Tue Jan 21, 1:00am

Tue Jan 21, 12:10am

Tue Jan 21, 12:00am

Mon Jan 20, 11:10pm

Mon Jan 20, 11:00pm

Mon Jan 20, 10:10pm

Mon Jan 20, 10:00pm

Mon Jan 20, 9:10pm

Mon Jan 20, 9:00pm

Mon Jan 20, 8:10pm

Mon Jan 20, 8:00pm

Mon Jan 20, 7:10pm

Mon Jan 20, 7:00pm

Mon Jan 20, 6:10pm

Mon Jan 20, 6:00pm

Mon Jan 20, 5:10pm

Mon Jan 20, 5:00pm

Mon Jan 20, 4:10pm

Mon Jan 20, 4:01pm

Mon Jan 20, 3:10pm

Mon Jan 20, 3:00pm

Mon Jan 20, 2:10pm

Mon Jan 20, 2:00pm

Mon Jan 20, 1:10pm

Mon Jan 20, 1:00pm

Mon Jan 20, 12:10pm

Mon Jan 20, 12:00pm

Mon Jan 20, 11:10am

Mon Jan 20, 11:00am

Mon Jan 20, 10:10am

Mon Jan 20, 10:00am

Mon Jan 20, 9:10am

Mon Jan 20, 9:00am

Meta data:

ID: e3b14a52-9caa-4e8d-8dc7-b3a7c6e1ba32
Link: https://api.weather.gov/products/e3b14a52-9caa-4e8d-8dc7-b3a7c6e1ba32